Weather History for Carlsbad, NM

Change the Weather History Date:

Saturday, September 21, 2013

  Actual Average Record
Temperature  
Mean Temperature 70 °F -  
Max Temperature 78 °F 82 °F 100 °F (1977)
Min Temperature 62 °F 58 °F 42 °F (1983)
Cooling Degree Days 5    
Growing Degree Days 20 (Base 50)    
Moisture  
Dew Point 58 °F    
Average Humidity 73    
Maximum Humidity 94    
Minimum Humidity 48    
Precipitation  
Precipitation 0.00 in - - ()
Sea Level Pressure  
Sea Level Pressure 29.98 in    
Wind  
Wind Speed 5 mph (SE)    
Max Wind Speed 13 mph    
Max Gust Speed 16 mph    
Visibility 10 miles    
Events      
Averages and records for this station are not official NWS values.
T = Trace of Precipitation, MM = Missing Value Source: NWS Daily Summary

Daily Weather History Graph

Daily Weather History Graph

Search for Another Location

Airport:

Trip Planner

Search our weather history database for the weather conditions in past years. The results will help you decide how hot, cold, wet, or windy it might be!

Date:

Astronomy

Sep. 21, 2013 Rise Set
Actual Time 6:44 AM MDT 6:54 PM MDT
Civil Twilight 6:20 AM MDT 7:19 PM MDT
Nautical Twilight 5:51 AM MDT 7:47 PM MDT
Astronomical Twilight 5:22 AM MDT 8:16 PM MDT
Moon 8:18 PM MDT (9/21) 8:55 AM MDT (9/21)
Length of Visible Light 12h 58m
Length of Day
12h 09m
Waning Gibbous, 94% of the Moon is Illuminated
Sep 21
Waning Gibbous
Sep 26
Last Quarter
Oct 4
New
Oct 11
First Quarter
Oct 18
Full

Hourly Weather History & Observations

Time (MDT) Temp. Dew Point Humidity Pressure Visibility Wind Dir Wind Speed Gust Speed Precip Events Conditions
12:53 AM 64.0 °F 60.1 °F 87% 29.98 in 10.0 mi Calm Calm - N/A   Clear
1:53 AM 63.0 °F 61.0 °F 93% 29.98 in 10.0 mi ENE 4.6 mph - N/A   Mostly Cloudy
2:22 AM 62.6 °F 60.8 °F 94% 30.11 in 10.0 mi ENE 4.6 mph - N/A   Mostly Cloudy
2:30 AM 62.6 °F 60.8 °F 94% 30.11 in 10.0 mi East 3.5 mph - N/A   Mostly Cloudy
2:51 AM 62.6 °F 60.8 °F 94% 30.11 in 10.0 mi East 4.6 mph - N/A   Overcast
2:53 AM 63.0 °F 60.1 °F 90% 29.98 in 10.0 mi East 4.6 mph - N/A   Overcast
3:53 AM 64.0 °F 60.1 °F 87% 29.96 in 10.0 mi East 4.6 mph - N/A   Overcast
4:53 AM 63.0 °F 59.0 °F 87% 29.97 in 10.0 mi ESE 3.5 mph - N/A   Overcast
5:48 AM 62.6 °F 59.0 °F 88% 30.11 in 10.0 mi Calm Calm - N/A   Overcast
5:53 AM 63.0 °F 59.0 °F 87% 29.98 in 10.0 mi East 3.5 mph - N/A   Overcast
6:53 AM 63.0 °F 57.9 °F 84% 29.99 in 10.0 mi Calm Calm - N/A   Overcast
7:53 AM 63.0 °F 59.0 °F 87% 30.01 in 10.0 mi East 3.5 mph - N/A   Mostly Cloudy
8:53 AM 64.9 °F 57.9 °F 78% 30.02 in 10.0 mi SE 4.6 mph - N/A   Partly Cloudy
9:53 AM 66.0 °F 57.9 °F 75% 30.03 in 10.0 mi ESE 3.5 mph - N/A   Scattered Clouds
10:36 AM 71.6 °F 59.0 °F 64% 30.14 in 10.0 mi ESE 4.6 mph - N/A   Mostly Cloudy
10:53 AM 71.1 °F 57.9 °F 63% 30.01 in 10.0 mi Variable 4.6 mph - N/A   Overcast
11:24 AM 71.6 °F 57.2 °F 60% 30.13 in 10.0 mi SSE 6.9 mph - N/A   Mostly Cloudy
11:53 AM 71.1 °F 57.0 °F 61% 29.99 in 10.0 mi South 6.9 mph - N/A   Scattered Clouds
12:01 PM 71.6 °F 57.2 °F 60% 30.12 in 10.0 mi Variable 6.9 mph - N/A   Mostly Cloudy
12:18 PM 71.6 °F 57.2 °F 60% 30.11 in - South 8.1 mph - N/A   Mostly Cloudy
12:53 PM 73.9 °F 57.9 °F 57% 29.96 in 10.0 mi SSE 8.1 mph - N/A   Mostly Cloudy
1:53 PM 75.9 °F 57.0 °F 52% 29.93 in 10.0 mi SSE 10.4 mph - N/A   Mostly Cloudy
2:53 PM 77.0 °F 55.9 °F 48% 29.90 in 10.0 mi South 9.2 mph 16.1 mph N/A   Clear
3:53 PM 77.0 °F 55.9 °F 48% 29.86 in 10.0 mi South 9.2 mph - N/A   Clear
4:53 PM 78.1 °F 57.0 °F 48% 29.84 in 10.0 mi South 12.7 mph - N/A   Clear
5:53 PM 77.0 °F 55.9 °F 48% 29.83 in 10.0 mi South 10.4 mph - N/A   Clear
6:53 PM 73.0 °F 57.0 °F 57% 29.83 in 10.0 mi South 6.9 mph - N/A   Clear
7:53 PM 70.0 °F 57.0 °F 63% 29.84 in 10.0 mi SSE 6.9 mph - N/A   Clear
8:53 PM 64.9 °F 57.9 °F 78% 29.86 in 10.0 mi SSW 5.8 mph - N/A   Clear
9:53 PM 64.9 °F 57.9 °F 78% 29.86 in 10.0 mi South 9.2 mph - N/A   Clear
10:53 PM 64.9 °F 57.0 °F 75% 29.86 in 10.0 mi South 8.1 mph - N/A   Clear
11:53 PM 64.0 °F 57.0 °F 78% 29.86 in 10.0 mi South 6.9 mph - N/A   Clear